Flag for Guinea Weather past 2 weeks in Nzérékoré, Guinea

Now
77 °F

Passing clouds.


Feels Like: 78 °F
Forecast: 71 / 82 °F
Wind: No wind

Location: Roberts Field

Current Time: Jul 7, 2015 at 1:13:04 AM

Latest Report: Jul 7, 2015 at 12:30 AM


Visibility: 5 mi

Pressure: 29.92 "Hg

Humidity: 94%

Dew point: 75 °F

Location of NzérékoréLocation

Historic Weather in Nzérékoré — Graph

°F

Nzérékoré temperature yesterday

Maximum temperature yesterday: 79 °F (at 10:00 AM)
Minimum temperature yesterday: 75 °F (at 7:00 AM)
Average temperature yesterday: 77 °F

Past Weeks' High & Low Weather Summary

 TemperatureHumidityPressure
High86 °F (Jun 26, 12:30 PM)100% (Jun 23, 4:30 AM)30.12 "Hg (Jun 23, 4:30 AM)
Low73 °F (Jun 24, 4:30 AM)74% (Jun 22, 2:30 PM)29.86 "Hg (Jul 5, 4:00 PM)
Average78 °F91%29.98 "Hg
* Reported Jun 22 7:00 AM — Midnight between Jul 6 and Jul 7, Nzérékoré, Weather by CustomWeather, © 2015

Note: Actual official high and low records may vary slightly from our data, if they occured in-between our weather recording intervals... More about our weather records

Advertising

Nzérékoré weather history for previous 24 hours

 ConditionsComfort  
Time TempWeatherWind HumidityBarometerVisibility
12:00 AM
Tue, Jul 7
77 °FPassing clouds.No wind94%29.95 "Hg5 mi
11:30 PM
Mon, Jul 6
77 °FPassing clouds.No wind94%29.95 "HgN/A
11:00 PM77 °FPassing clouds.No wind94%29.92 "HgN/A
10:30 PM77 °FPassing clouds.No wind94%29.92 "HgN/A
10:00 PM77 °FPassing clouds.No wind94%29.92 "HgN/A
9:30 PM77 °FPassing clouds.No wind94%29.92 "HgN/A
9:00 PM77 °FPartly cloudy.No wind94%29.92 "HgN/A
8:30 PM77 °FLight rain. Partly cloudy.5 mph94%29.92 "Hg5 mi
8:00 PM77 °FLight rain. Mostly cloudy.No wind94%29.89 "Hg4 mi
7:30 PM77 °FLight rain. Mostly cloudy.7 mph94%29.89 "Hg2 mi
7:00 PM77 °FRain. Mostly cloudy.8 mph94%29.86 "Hg2 mi
6:30 PM77 °FRain. Mostly cloudy.10 mph94%29.86 "Hg2 mi
6:00 PM77 °FRain. Mostly cloudy.9 mph94%29.86 "Hg2 mi
3:00 PM79 °FRain. Mostly cloudy.7 mph94%29.86 "Hg4 mi
2:30 PM79 °FRain. Mostly cloudy.5 mph94%29.86 "Hg4 mi
2:00 PM79 °FPartly sunny.6 mph94%29.89 "HgN/A
1:30 PM79 °FPartly sunny.9 mph94%29.89 "HgN/A
1:00 PM77 °FRain. Mostly cloudy.3 mph94%29.89 "Hg4 mi
12:30 PM77 °FRain. Mostly cloudy.5 mph94%29.89 "Hg2 mi
12:00 PM77 °FRain. Mostly cloudy.6 mph94%29.92 "Hg2 mi
11:30 AM77 °FRain. Mostly cloudy.3 mph94%29.92 "Hg2 mi
11:00 AM77 °FLight rain. Mostly cloudy.5 mph94%29.92 "Hg4 mi
10:30 AM79 °FLight rain. Broken clouds.6 mph94%29.92 "Hg5 mi
10:00 AM79 °FDrizzle. Broken clouds.No wind89%29.92 "Hg5 mi
9:30 AM77 °FRain. Mostly cloudy.No wind94%29.92 "Hg2 mi
9:00 AM77 °FDrizzle. Mostly cloudy.No wind94%29.92 "Hg2 mi
8:30 AM77 °FDrizzle. Mostly cloudy.No wind94%29.92 "Hg2 mi
8:00 AM77 °FLight rain. Mostly cloudy.No wind94%29.89 "Hg2 mi
7:30 AM75 °FRain. Mostly cloudy.No wind94%29.89 "Hg2 mi
7:00 AM75 °FRain. Partly cloudy.No wind94%29.89 "Hg4 mi
6:30 AM77 °FLight rain. Partly cloudy.No wind94%29.89 "Hg4 mi
5:30 AM77 °FLight rain. Passing clouds.No wind94%29.86 "Hg4 mi
5:00 AM77 °FLight rain. Passing clouds.No wind94%29.86 "Hg4 mi
4:30 AM77 °FLight rain. Passing clouds.No wind94%29.86 "Hg4 mi
3:30 AM77 °FPassing clouds.No wind94%29.86 "HgN/A
3:00 AM77 °FPassing clouds.No wind94%29.86 "HgN/A
2:30 AM77 °FPassing clouds.No wind94%29.86 "HgN/A
2:00 AM77 °FPassing clouds.No wind94%29.89 "HgN/A
1:30 AM77 °FPassing clouds.No wind94%29.89 "HgN/A
1:00 AM77 °FPassing clouds.No wind94%29.92 "HgN/A
Weather by CustomWeather, © 2015

See weather overviewHow to use our weather pages